RYR6216 EPKK-ENTO

Flight info

Callsign RYR6216
Flight time N/A
Altitude 36000
Route LUMVE L619 NUDRO/N0385F280 L619 ARMEX/N0424F340 L619 ADVAB L617 KOLOB DCT SABAK L997 XENTA Y43 REPKU
Aircraft B738/M-SDE2E3FGHIRWXY/LB1

Departure

Time 2026-05-05 08:27
Airport Kraków John Paul II International Airport (EPKK)

Arrival

Time N/A
Airport Sandefjord Airport, Torp (ENTO)
Time Latitude Longitude Altitude Speed Heading
2026-05-05 07:59 50.07308 19.80005 801 ft 0 kts 166°
2026-05-05 08:21 50.07311 19.80004 800 ft 2 kts 168°
2026-05-05 08:21 50.07326 19.80001 800 ft 2 kts 167°
2026-05-05 08:21 50.07341 19.79995 800 ft 2 kts 167°
2026-05-05 08:21 50.07355 19.79990 800 ft 2 kts 167°
2026-05-05 08:22 50.07370 19.79985 800 ft 2 kts 168°
2026-05-05 08:22 50.07385 19.79980 800 ft 1 kts 167°
2026-05-05 08:22 50.07393 19.79975 800 ft 1 kts 120°
2026-05-05 08:22 50.07394 19.79959 800 ft 2 kts 67°
2026-05-05 08:23 50.07391 19.79936 800 ft 2 kts 79°
2026-05-05 08:23 50.07388 19.79917 800 ft 0 kts 75°
2026-05-05 08:23 50.07387 19.79915 800 ft 0 kts 75°
2026-05-05 08:24 50.07388 19.79917 800 ft 1 kts 75°
2026-05-05 08:25 50.07404 19.80029 800 ft 20 kts 81°
2026-05-05 08:25 50.07442 19.80310 800 ft 25 kts 71°
2026-05-05 08:25 50.07552 19.80413 800 ft 17 kts 13°
2026-05-05 08:25 50.07676 19.80393 800 ft 18 kts 348°
2026-05-05 08:26 50.07822 19.80344 800 ft 23 kts 349°
2026-05-05 08:26 50.07993 19.80275 800 ft 23 kts 317°
2026-05-05 08:26 50.07995 19.80064 800 ft 17 kts 257°
2026-05-05 08:26 50.07937 19.79646 800 ft 73 kts 259°
2026-05-05 08:27 50.07779 19.78537 800 ft 133 kts 258°
2026-05-05 08:27 50.07542 19.76876 851 ft 175 kts 257°
2026-05-05 08:27 50.07264 19.74976 1388 ft 182 kts 258°
2026-05-05 08:27 50.07026 19.73097 2193 ft 172 kts 259°
2026-05-05 08:28 50.06795 19.71281 2700 ft 179 kts 258°
2026-05-05 08:28 50.06566 19.69230 2924 ft 201 kts 270°
2026-05-05 08:28 50.07017 19.67069 3086 ft 222 kts 308°
2026-05-05 08:28 50.08105 19.65104 3348 ft 246 kts 312°
2026-05-05 08:29 50.09226 19.63004 3863 ft 262 kts 309°
2026-05-05 08:29 50.10388 19.60645 4424 ft 275 kts 308°
2026-05-05 08:29 50.11546 19.58225 5155 ft 280 kts 307°
2026-05-05 08:30 50.13913 19.53287 6670 ft 288 kts 306°
2026-05-05 08:30 50.15106 19.50734 7435 ft 291 kts 305°
2026-05-05 08:30 50.16301 19.48174 8251 ft 293 kts 304°
2026-05-05 08:30 50.17517 19.45590 9113 ft 293 kts 304°
2026-05-05 08:31 50.18750 19.42997 9920 ft 295 kts 304°
2026-05-05 08:31 50.19996 19.40416 10445 ft 308 kts 305°
2026-05-05 08:31 50.21346 19.37647 10725 ft 329 kts 305°
2026-05-05 08:31 50.22746 19.34793 11557 ft 329 kts 304°
2026-05-05 08:32 50.24155 19.31925 12305 ft 333 kts 304°
2026-05-05 08:32 50.25577 19.29021 13106 ft 335 kts 304°
2026-05-05 08:32 50.27002 19.26109 13891 ft 338 kts 304°
2026-05-05 08:32 50.27580 19.24923 14206 ft 339 kts 304°